sat.trackr.live / text

‹ back to catalog

ICEYE-X46

NORAD 63258 · 2025-052BA

PAYLOAD ACTIVE UNKNOWN

§ Identity

Operator
Country
FIN
Launch date
2025-03-15
Launch site
AFWTR
Launch vehicle
Mass (kg)
RCS (m²)

External: N2YO · Heavens-Above · Gunter

§ Orbital elements

Epoch: 2026-05-24T22:24:08.006400Z

Period
96.31 min
Inclination
97.6920°
Eccentricity
0.0001719
Mean motion
14.95201710 rev/d
Perigee alt
580.6 km
Apogee alt
582.9 km
Semi-major
6,959.9 km
B*
1.2909e-4
RAAN
37.2718°
Arg perigee
86.8792°
Mean anomaly
273.2625°
Rev number
6,517

§ Raw data

ICEYE-X461 63258U 25052BA  26144.93342600  .00001362  00000+0  12909-3 0  99972 63258  97.6920  37.2718 0001719  86.8792 273.2625 14.95201710 65171

JSON: /api/v1/satellites/63258 · /tle

For live sub-satellite position, see the globe view (requires WebGL).

§ Visibility from observer

Set your observer location to see the next 7 days of passes ≥ 10°. The values pass through the URL so the page stays shareable.

No JS? Fill the form by hand. The geolocation button needs JavaScript.

§ Radio — SatNOGS DB

ModeDescriptionDownlinkUplink
FM S-band telemetry 2.276 GHz

1 transmitter · refreshed weekly from db.satnogs.org